• In Kazakhstan
  • List of Countries
  • For 7 days
  • Water Temperature
  • Satellite Maps
  • Weather Map
  • News
  • Weather Widgets
  • user-avatar
    Login

    Hourly Weather Side

    Today, 21 November, Tuesday

    Time Temperature Precipitation Wind Pressure Humidity
    00:00 +14°C° 0.9 mm 10 mps 753 mmHg 77%
    01:00 +14°C° 0.9 mm 10 mps 753 mmHg 71%
    02:00 +13°C° 0.9 mm 10 mps 753 mmHg 65%
    03:00 +12°C° 0 mm 10 mps 753 mmHg 65%
    04:00 +11°C° 0 mm 9 mps 754 mmHg 66%
    05:00 +10°C° 0 mm 9 mps 754 mmHg 66%
    06:00 +9°C° 0 mm 10 mps 755 mmHg 64%
    07:00 +11°C° 0 mm 10 mps 756 mmHg 63%
    08:00 +11°C° 0 mm 10 mps 756 mmHg 61%
    09:00 +12°C° 0 mm 10 mps 757 mmHg 55%
    10:00 +13°C° 0 mm 10 mps 757 mmHg 49%
    11:00 +14°C° 0 mm 10 mps 757 mmHg 43%
    12:00 +14°C° 0 mm 10 mps 758 mmHg 42%
    13:00 +15°C° 0 mm 9 mps 758 mmHg 41%
    14:00 +15°C° 0 mm 9 mps 758 mmHg 40%
    15:00 +13°C° 0 mm 9 mps 758 mmHg 43%
    16:00 +12°C° 0 mm 9 mps 759 mmHg 46%
    17:00 +11°C° 0 mm 9 mps 759 mmHg 48%
    18:00 +10°C° 0 mm 9 mps 760 mmHg 50%
    19:00 +10°C° 0 mm 9 mps 760 mmHg 51%
    20:00 +8°C° 0 mm 9 mps 761 mmHg 52%
    21:00 +8°C° 0 mm 9 mps 761 mmHg 52%
    22:00 +7°C° 0 mm 9 mps 762 mmHg 53%
    23:00 +7°C° 0 mm 8 mps 762 mmHg 53%

    Tomorrow, 22 November, Wednesday

    Time Temperature Precipitation Wind Pressure Humidity
    00:00 +7°C° 0 mm 8 mps 762 mmHg 52%
    01:00 +7°C° 0 mm 8 mps 762 mmHg 52%
    02:00 +7°C° 0 mm 8 mps 762 mmHg 51%
    03:00 +6°C° 0 mm 8 mps 762 mmHg 51%
    04:00 +6°C° 0 mm 8 mps 762 mmHg 51%
    05:00 +6°C° 0 mm 8 mps 762 mmHg 51%
    06:00 +7°C° 0 mm 8 mps 762 mmHg 49%
    07:00 +8°C° 0 mm 7 mps 763 mmHg 48%
    08:00 +9°C° 0 mm 7 mps 763 mmHg 46%
    09:00 +10°C° 0 mm 6 mps 763 mmHg 41%
    10:00 +13°C° 0 mm 6 mps 763 mmHg 35%
    11:00 +15°C° 0 mm 5 mps 763 mmHg 29%
    12:00 +15°C° 0 mm 5 mps 763 mmHg 29%
    13:00 +17°C° 0 mm 4 mps 763 mmHg 29%
    14:00 +17°C° 0 mm 4 mps 762 mmHg 28%
    15:00 +15°C° 0 mm 4 mps 763 mmHg 32%
    16:00 +13°C° 0 mm 4 mps 763 mmHg 35%
    17:00 +12°C° 0 mm 4 mps 763 mmHg 39%
    18:00 +12°C° 0 mm 4 mps 763 mmHg 40%
    19:00 +11°C° 0 mm 4 mps 764 mmHg 42%
    20:00 +11°C° 0 mm 4 mps 764 mmHg 43%
    21:00 +11°C° 0 mm 4 mps 764 mmHg 44%
    22:00 +10°C° 0 mm 4 mps 764 mmHg 44%
    23:00 +10°C° 0 mm 4 mps 764 mmHg 44%

    Day after tomorrow, 23 November, Thursday

    Time Temperature Precipitation Wind Pressure Humidity
    00:00 +10°C° 0 mm 4 mps 764 mmHg 45%
    01:00 +10°C° 0 mm 3 mps 764 mmHg 46%
    02:00 +10°C° 0 mm 3 mps 764 mmHg 46%
    03:00 +10°C° 0 mm 3 mps 764 mmHg 47%
    04:00 +10°C° 0 mm 3 mps 764 mmHg 48%
    05:00 +10°C° 0 mm 3 mps 764 mmHg 49%
    06:00 +11°C° 0 mm 3 mps 764 mmHg 49%
    07:00 +13°C° 0 mm 2 mps 764 mmHg 49%
    08:00 +13°C° 0 mm 2 mps 764 mmHg 50%
    09:00 +15°C° 0 mm 2 mps 764 mmHg 47%
    10:00 +17°C° 0 mm 2 mps 764 mmHg 44%
    11:00 +18°C° 0 mm 2 mps 764 mmHg 42%
    12:00 +18°C° 0 mm 2 mps 764 mmHg 42%
    13:00 +19°C° 0 mm 2 mps 763 mmHg 42%
    14:00 +19°C° 0 mm 2 mps 763 mmHg 43%
    15:00 +18°C° 0 mm 2 mps 763 mmHg 49%
    16:00 +16°C° 0 mm 3 mps 763 mmHg 55%
    17:00 +14°C° 0 mm 3 mps 763 mmHg 61%
    18:00 +14°C° 0 mm 3 mps 763 mmHg 61%
    19:00 +14°C° 0 mm 3 mps 764 mmHg 60%
    20:00 +13°C° 0 mm 3 mps 764 mmHg 59%
    21:00 +13°C° 0 mm 3 mps 764 mmHg 59%
    22:00 +13°C° 0 mm 3 mps 764 mmHg 58%
    23:00 +13°C° 0 mm 3 mps 765 mmHg 57%

    24 November, Friday

    Time Temperature Precipitation Wind Pressure Humidity
    00:00 +13°C° 0 mm 4 mps 764 mmHg 57%
    01:00 +13°C° 0 mm 4 mps 764 mmHg 56%
    02:00 +12°C° 0 mm 4 mps 764 mmHg 56%
    03:00 +12°C° 0 mm 4 mps 764 mmHg 55%
    04:00 +12°C° 0 mm 4 mps 764 mmHg 54%
    05:00 +12°C° 0 mm 4 mps 764 mmHg 54%
    06:00 +13°C° 0 mm 4 mps 764 mmHg 52%
    07:00 +13°C° 0 mm 4 mps 765 mmHg 51%
    08:00 +14°C° 0 mm 4 mps 765 mmHg 50%
    09:00 +16°C° 0 mm 3 mps 765 mmHg 45%
    10:00 +18°C° 0 mm 3 mps 765 mmHg 40%
    11:00 +20°C° 0 mm 2 mps 765 mmHg 36%
    12:00 +20°C° 0 mm 2 mps 765 mmHg 36%
    13:00 +21°C° 0 mm 2 mps 764 mmHg 35%
    14:00 +21°C° 0 mm 2 mps 764 mmHg 35%
    15:00 +19°C° 0 mm 2 mps 764 mmHg 41%
    16:00 +18°C° 0 mm 2 mps 764 mmHg 47%
    17:00 +16°C° 0 mm 2 mps 764 mmHg 54%
    18:00 +16°C° 0 mm 2 mps 765 mmHg 54%
    19:00 +15°C° 0 mm 1 mps 765 mmHg 54%
    20:00 +15°C° 0 mm 1 mps 765 mmHg 54%
    21:00 +15°C° 0 mm 2 mps 766 mmHg 53%
    22:00 +15°C° 0 mm 2 mps 766 mmHg 53%
    23:00 +14°C° 0 mm 2 mps 766 mmHg 52%

    25 November, Saturday

    Time Temperature Precipitation Wind Pressure Humidity
    00:00 +14°C° 0 mm 2 mps 766 mmHg 51%
    01:00 +14°C° 0 mm 2 mps 766 mmHg 51%
    02:00 +14°C° 0 mm 2 mps 766 mmHg 50%
    03:00 +13°C° 0 mm 3 mps 766 mmHg 51%
    04:00 +13°C° 0 mm 3 mps 766 mmHg 51%
    05:00 +12°C° 0 mm 3 mps 766 mmHg 51%
    06:00 +13°C° 0 mm 3 mps 766 mmHg 51%
    07:00 +13°C° 0 mm 3 mps 767 mmHg 51%
    08:00 +14°C° 0 mm 3 mps 767 mmHg 50%
    09:00 +16°C° 0 mm 3 mps 767 mmHg 47%
    10:00 +18°C° 0 mm 3 mps 767 mmHg 45%
    11:00 +19°C° 0 mm 3 mps 767 mmHg 42%
    12:00 +19°C° 0 mm 3 mps 766 mmHg 42%
    13:00 +20°C° 0 mm 3 mps 766 mmHg 42%
    14:00 +20°C° 0 mm 3 mps 766 mmHg 43%
    15:00 +18°C° 0.1 mm 3 mps 766 mmHg 49%
    16:00 +17°C° 0.1 mm 2 mps 766 mmHg 54%
    17:00 +15°C° 0.1 mm 2 mps 766 mmHg 60%
    18:00 +15°C° 0.1 mm 2 mps 766 mmHg 60%
    19:00 +15°C° 0.1 mm 2 mps 767 mmHg 60%
    20:00 +15°C° 0.1 mm 2 mps 767 mmHg 60%
    21:00 +14°C° 0 mm 2 mps 767 mmHg 60%
    22:00 +13°C° 0 mm 3 mps 767 mmHg 59%
    23:00 +13°C° 0 mm 3 mps 767 mmHg 59%

    26 November, Sunday

    Time Temperature Precipitation Wind Pressure Humidity
    00:00 +13°C° 0 mm 3 mps 767 mmHg 58%
    01:00 +13°C° 0 mm 3 mps 767 mmHg 57%
    02:00 +12°C° 0 mm 3 mps 767 mmHg 57%
    03:00 +12°C° 0 mm 3 mps 767 mmHg 57%
    04:00 +12°C° 0 mm 3 mps 767 mmHg 56%
    05:00 +12°C° 0 mm 3 mps 767 mmHg 56%
    06:00 +12°C° 0 mm 3 mps 767 mmHg 55%
    07:00 +13°C° 0 mm 3 mps 768 mmHg 54%
    08:00 +13°C° 0 mm 3 mps 768 mmHg 53%
    09:00 +16°C° 0 mm 2 mps 768 mmHg 48%
    10:00 +17°C° 0 mm 2 mps 767 mmHg 43%
    11:00 +20°C° 0 mm 1 mps 767 mmHg 39%
    12:00 +20°C° 0 mm 1 mps 767 mmHg 38%
    13:00 +21°C° 0 mm 1 mps 766 mmHg 38%
    14:00 +21°C° 0 mm 1 mps 766 mmHg 37%
    15:00 +19°C° 0 mm 1 mps 766 mmHg 43%
    16:00 +18°C° 0 mm 1 mps 766 mmHg 50%
    17:00 +15°C° 0 mm 1 mps 766 mmHg 56%
    18:00 +15°C° 0 mm 1 mps 767 mmHg 56%
    19:00 +14°C° 0 mm 1 mps 767 mmHg 56%
    20:00 +14°C° 0 mm 1 mps 767 mmHg 56%
    21:00 +14°C° 0 mm 1 mps 767 mmHg 54%
    22:00 +14°C° 0 mm 1 mps 767 mmHg 52%
    23:00 +13°C° 0 mm 1 mps 767 mmHg 51%
    Show more